Simultaneous Nadir Overpasses (SNOs) Predictions

Prediction of SNOs between GOES-17 and NOAA-19 Satellite Orbit:

Table of predicted SNOs for the next 14.0 days since TLE Epoch: 7/24/2021
Index Date Time (GOES-17) GOES-17 Lat,Lon NOAA-19 Lat,Lon Distance(km) Time Diff (sec)
1 07/24/2021 04:08:18 -0.03,-137.17 -0.15,-137.71 61.43 80
2 07/25/2021 03:59:13 -0.03,-137.16 0.50,-134.84 265.16 80
3 07/27/2021 16:17:16 0.01,-137.16 0.59,-139.75 295.50 80
4 07/28/2021 16:08:11 0.01,-137.15 -0.04,-136.87 30.94 80
5 07/29/2021 15:56:26 0.01,-137.14 -0.73,-134.01 357.28 80
6 08/01/2021 04:14:40 -0.01,-137.09 -0.46,-138.95 212.79 80
7 08/02/2021 04:05:35 -0.01,-137.07 0.20,-136.07 113.24 80
8 08/03/2021 03:53:49 -0.02,-137.05 0.85,-133.20 439.05 80
9 08/04/2021 16:23:40 0.01,-137.04 0.94,-140.98 450.68 80
10 08/05/2021 16:11:55 -0.00,-137.01 0.24,-138.12 125.87 80
11 08/06/2021 16:02:50 -0.00,-136.99 -0.40,-135.24 199.05 80
